Regional Weather Roundup
Issued by NWS Midland/Odessa, TX

Skip options and go directly to product.
Home | Oldest Version | Previous Version | Current Version | All | Graphics & Text | Save Text | Print | Product List | Glossary On

Skip product version selection by date and time.   
216
ASUS44 KMAF 260310
RWRMAF
MIDLAND AREA WEATHER ROUNDUP
NATIONAL WEATHER SERVICE MIDLAND TX
1000 PM CDT SAT OCT 25 2014

...IN SOUTHWEST TEXAS AND SOUTHEAST NEW MEXICO...

CITY           SKY/WX    TMP DP  RH WIND       PRES   REMARKS
ALPINE         CLEAR     63  47  57 S7        30.26S
ANDREWS        FAIR      67  52  57 S5        30.12R
ARTESIA        NOT AVBL
BIG SPRING     CLEAR     74  48  40 SE13      30.12S
CARLSBAD       CLEAR     63  52  67 SW7       30.08S
DRYDEN           N/A     71  57  61 E5        30.10S
FORT STOCKTON  CLEAR     71  53  52 S13       30.11S
GUAD PASS      CLEAR     66  36  32 SW9       30.25S
HOBBS          CLEAR     64  48  55 S5        30.13S
MARFA          CLEAR     57  50  77 NE3       30.25S
MIDLAND AIRPK  CLEAR     75  47  37 S9        30.12R
MIDLAND INTL   CLEAR     74  49  41 S12       30.11R
ODESSA         CLEAR     74  50  42 S10       30.12R
PECOS          CLEAR     69  54  58 E6        30.07S
PRESIDIO       FAIR      72  49  44 N9        30.10R
SEMINOLE       CLEAR     65  51  60 CALM      30.12S
SNYDER         CLEAR     69  51  52 S9        30.10R
WINK           CLEAR     72  49  44 SE12      30.07S
$$
...OTHER STATIONS IN TEXAS...

CITY           SKY/WX    TMP DP  RH WIND       PRES   REMARKS
ABILENE        CLEAR     72  51  47 S9        30.08S
AMARILLO       CLEAR     67  51  56 S14       30.08R
AUSTIN         CLEAR     66  58  75 CALM      30.09S
BROWNSVILLE    CLEAR     70  66  87 E7        30.11S
CORPUS CHRISTI CLEAR     68  64  87 S5        30.11R
DALLAS FTW     CLEAR     75  60  59 S8        30.05S
DEL RIO        CLEAR     73  59  61 SE7       30.07S
EL PASO        CLEAR     76  44  32 CALM      30.13S
HOUSTON INT    CLEAR     68  58  70 S3        30.11R
LUBBOCK        CLEAR     68  48  48 S9        30.10R
SAN ANGELO     CLEAR     71  51  49 S8        30.10R
SAN ANTONIO    CLEAR     75  56  51 CALM      30.10S
WACO           CLEAR     73  62  68 S7        30.08R
WICHITA FALLS  NOT AVBL
$$
...OTHER LOCATIONS IN NEW MEXICO...

CITY           SKY/WX    TMP DP  RH WIND       PRES   REMARKS
ALAMAGORDO     NOT AVBL
ALBUQUERQUE    CLEAR     63  34  33 SE9       30.18S
CANNON AFB     CLEAR     61  41  48 SW8       30.13R
CLOVIS         CLEAR     59  39  47 SW8       30.14F
HOLLOMAN AFB   PTCLDY    66  43  43 E7        30.13S
ROSWELL        CLEAR     63  53  70 S9        30.09S
RUIDOSO        CLEAR     57  32  38 CALM      30.32S
SANTA FE       CLEAR     56  28  34 NW6       30.22S
TRUTH OR CONSE CLEAR     67  43  41 W9        30.16R
TUCUMCARI      CLEAR     69  41  36 SW13      30.06R
$$

USA.gov is the U.S. government's official web portal to all federal, state and local government web resources and services.